Location: DARK SKY Beskydy - Park tmavé oblohy, www.darkskybeskydy.cz
(49.4926°N, 18.5016°E)
Time: 03:59:29
(UTC+02:00)

A-11 Canister half - Pass Details

Date: 25 February 2024
Orbit: 1513 x 1686 km, 47.2° (Epoch: 24 April)

Event Time Altitude Azimuth Distance (km) Brightness Sun altitude
Rises 23:02:23 0° 176° (S) 4,921 - -47.8°
Reaches altitude 10° 23:07:22 10° 156° (SSE) 3,942 - -48.1°
Maximum altitude 23:12:32 15° 125° (SE) 3,522 - -48.4°
Drops below altitude 10° 23:17:41 10° 93° (E) 3,934 - -48.6°
Exits shadow 23:21:53 - 76° (ENE) 4,740 11.6 -48.8°
Sets 23:22:36 0° 73° (ENE) 4,905 11.7 -48.8°
